"Pseudo-MPEC" for JKu348

Created 2026 Jan 18 13:35:15 UT using Find_Orb

Click here for an explanation of pseudo-MPECs

 
 Astrometry: 
     JKu348 *LC2025 12 30.33147014 07 30.432-20 42 56.77   ~CUNZ 21.9 rVNEOCPW84
     JKu348  LC2025 12 30.34153814 07 30.602-20 42 57.64   ~CUNZ 21.9 rVNEOCPW84
     JKu348  LC2025 12 30.34998814 07 30.744-20 42 58.43   ~CUNZ 21.8 rVNEOCPW84
     JKu348  LC2025 12 30.35849014 07 30.878-20 42 59.08   ~CUNZ 22.1 rVNEOCPW84

Station data:
(W84) Cerro Tololo-DECam  (S30.169594 W70.806420)  Chile. Measurer S. Deen.
   4.0-m reflector + CCD.

Orbital elements:  JKu348
   Perihelion 2025 Apr 7.786867 +/- 847 TT = 18:53:05.3 (JD 2460773.286867)
Epoch 2025 Dec 30.0 TT = JDT 2461039.5   Earth MOID: 0.5554   Ju: 0.5461
M  13.947855157 +/- 80              Sa: 0.0459                   AutoNEOCP
n   0.052393565 +/-                 Peri.  190.332314 +/- 55
a   7.073224035 +/-                 Node   202.047950 +/- 33
e   0.97851094 +/- 0.183            Incl.  106.802976 +/- 54
P  18.81162                H 15.01  G  0.15   U 11.9  SR
q 0.151996900 +/- 2.62    Q 13.99445117 +/- 71.5          (J2000 ecliptic)
From 4 observations 2025 Dec. 30 (38.9 min); mean residual 0".03
Residuals in arcseconds: 
251230 W84  .03-  .01+    251230 W84  .05+  .05-    
251230 W84  .02+  .01+    251230 W84  .04-  .03+    

Ephemerides (geocentric):
Date (UTC) HH   RA             Dec           delta  r     elong  mag " sig PA
---- --------  ------------   ------------  ------ ------ -----  --- --------
2026 01 18 14  14 10 19.183   -20 58 23.98  4.3405 4.2929  80.7 22.1  35d 104
2026 01 18 15  14 10 19.184   -20 58 24.36  4.3402 4.2933  80.7 22.1  35d 104
2026 01 18 16  14 10 19.183   -20 58 24.73  4.3399 4.2937  80.8 22.1  35d 104
2026 01 18 17  14 10 19.181   -20 58 25.09  4.3395 4.2941  80.8 22.1  35d 104
2026 01 18 18  14 10 19.176   -20 58 25.44  4.3392 4.2945  80.9 22.1  35d 104
2026 01 18 19  14 10 19.171   -20 58 25.79  4.3389 4.2949  80.9 22.1  35d 104
2026 01 18 20  14 10 19.163   -20 58 26.13  4.3385 4.2952  81.0 22.1  35d 104
2026 01 18 21  14 10 19.154   -20 58 26.46  4.3382 4.2956  81.0 22.1  35d 104
2026 01 18 22  14 10 19.143   -20 58 26.78  4.3379 4.2960  81.0 22.1  35d 104
2026 01 18 23  14 10 19.131   -20 58 27.10  4.3376 4.2964  81.1 22.1  36d 104
2026 01 19 00  14 10 19.116   -20 58 27.41  4.3372 4.2968  81.1 22.1  36d 104
2026 01 19 01  14 10 19.101   -20 58 27.71  4.3369 4.2972  81.2 22.1  36d 104
2026 01 19 02  14 10 19.083   -20 58 28.00  4.3366 4.2976  81.2 22.1  36d 104
2026 01 19 03  14 10 19.064   -20 58 28.28  4.3362 4.2980  81.3 22.1  36d 104
2026 01 19 04  14 10 19.043   -20 58 28.56  4.3359 4.2984  81.3 22.1  36d 104
2026 01 19 05  14 10 19.020   -20 58 28.83  4.3356 4.2988  81.3 22.1  36d 104
2026 01 19 06  14 10 18.996   -20 58 29.09  4.3352 4.2992  81.4 22.1  36d 104
2026 01 19 07  14 10 18.970   -20 58 29.34  4.3349 4.2996  81.4 22.1  36d 104
2026 01 19 08  14 10 18.943   -20 58 29.58  4.3346 4.3000  81.5 22.1  36d 104
2026 01 19 09  14 10 18.913   -20 58 29.82  4.3342 4.3004  81.5 22.1  36d 104
2026 01 19 10  14 10 18.882   -20 58 30.05  4.3339 4.3008  81.5 22.1  36d 104
2026 01 19 11  14 10 18.850   -20 58 30.27  4.3336 4.3012  81.6 22.1  36d 104
2026 01 19 12  14 10 18.815   -20 58 30.48  4.3332 4.3016  81.6 22.1  36d 104
2026 01 19 13  14 10 18.779   -20 58 30.69  4.3329 4.3020  81.7 22.1  36d 104
2026 01 19 14  14 10 18.741   -20 58 30.89  4.3326 4.3024  81.7 22.1  36d 104
2026 01 19 15  14 10 18.702   -20 58 31.08  4.3322 4.3028  81.8 22.1  36d 104
2026 01 19 16  14 10 18.661   -20 58 31.26  4.3319 4.3032  81.8 22.1  36d 104
2026 01 19 17  14 10 18.618   -20 58 31.43  4.3316 4.3036  81.8 22.1  36d 104
2026 01 19 18  14 10 18.574   -20 58 31.60  4.3312 4.3040  81.9 22.1  36d 104
2026 01 19 19  14 10 18.528   -20 58 31.75  4.3309 4.3044  81.9 22.1  36d 104
2026 01 19 20  14 10 18.480   -20 58 31.90  4.3306 4.3048  82.0 22.1  36d 104
2026 01 19 21  14 10 18.430   -20 58 32.04  4.3302 4.3052  82.0 22.1  36d 104
2026 01 19 22  14 10 18.379   -20 58 32.18  4.3299 4.3056  82.1 22.1  36d 104
2026 01 19 23  14 10 18.326   -20 58 32.30  4.3296 4.3060  82.1 22.1  36d 104
2026 01 20 00  14 10 18.271   -20 58 32.42  4.3292 4.3064  82.1 22.1  36d 104
2026 01 20 01  14 10 18.215   -20 58 32.53  4.3289 4.3068  82.2 22.1  36d 104
2026 01 20 02  14 10 18.157   -20 58 32.63  4.3285 4.3072  82.2 22.1  36d 104
2026 01 20 03  14 10 18.098   -20 58 32.73  4.3282 4.3076  82.3 22.1  36d 104
2026 01 20 04  14 10 18.036   -20 58 32.81  4.3279 4.3080  82.3 22.1  36d 104
2026 01 20 05  14 10 17.973   -20 58 32.89  4.3275 4.3084  82.3 22.1  36d 104
2026 01 20 06  14 10 17.908   -20 58 32.96  4.3272 4.3088  82.4 22.1  36d 104
2026 01 20 07  14 10 17.842   -20 58 33.02  4.3269 4.3092  82.4 22.1  36d 104
2026 01 20 08  14 10 17.774   -20 58 33.07  4.3265 4.3096  82.5 22.1  36d 104
2026 01 20 09  14 10 17.704   -20 58 33.12  4.3262 4.3099  82.5 22.1  36d 104
2026 01 20 10  14 10 17.633   -20 58 33.16  4.3259 4.3103  82.6 22.1  36d 104
2026 01 20 11  14 10 17.559   -20 58 33.19  4.3255 4.3107  82.6 22.1  36d 104
2026 01 20 12  14 10 17.484   -20 58 33.21  4.3252 4.3111  82.6 22.1  36d 104
2026 01 20 13  14 10 17.408   -20 58 33.22  4.3249 4.3115  82.7 22.1  36d 104